Weather History for North Platte, NE

Change the Weather History Date:

Monday, September 3, 2012

  Actual Average Record
Temperature  
Mean Temperature 76 °F 68 °F  
Max Temperature 94 °F 83 °F 99 °F (1954)
Min Temperature 57 °F 53 °F 26 °F (1974)
Degree Days  
Heating Degree Days 0 2  
Month to date heating degree days 0 6  
Since 1 July heating degree days 11 26  
Cooling Degree Days 11 5  
Month to date cooling degree days 36 15  
Year to date cooling degree days 1201 710  
Growing Degree Days 28 (Base 50)    
Moisture  
Dew Point 54 °F    
Average Humidity 49    
Maximum Humidity 73    
Minimum Humidity 24    
Precipitation  
Precipitation 0.00 in 0.04 in 0.73 in (1920)
Month to date precipitation 0.00 0.14  
Year to date precipitation 9.24 16.36  
Snow  
Snow 0.00 in 0.00 in 0.00 in (2002)
Month to date snowfall 0.0 0.0  
Since 1 July snowfall 0.0 0.0  
Since 1 September snowfall 0.0 0.0  
Snow Depth 0.00 in    
Sea Level Pressure  
Sea Level Pressure 29.87 in    
Wind  
Wind Speed 3 mph (SW)    
Max Wind Speed 9 mph    
Max Gust Speed 12 mph    
Visibility 10 miles    
Events      
T = Trace of Precipitation, MM = Missing Value Source: NWS Daily Summary

Daily Weather History Graph

Daily Weather History Graph

Search for Another Location

Airport:

Trip Planner

Search our weather history database for the weather conditions in past years. The results will help you decide how hot, cold, wet, or windy it might be!

Date:

Astronomy

Sep. 03, 2012 Rise Set
Actual Time 7:11 AM CDT 8:11 PM CDT
Civil Twilight 6:43 AM CDT 8:39 PM CDT
Nautical Twilight 6:10 AM CDT 9:12 PM CDT
Astronomical Twilight 5:35 AM CDT 9:47 PM CDT
Moon 9:28 PM CDT (9/3) 10:24 AM CDT (9/3)
Length of Visible Light 13h 55m
Length of Day
12h 59m
Waning Gibbous, 90% of the Moon is Illuminated
Sep 3
Waning Gibbous
Sep 8
Last Quarter
Sep 15
New
Sep 22
First Quarter
Sep 29
Full

Hourly Weather History & Observations

Time (CDT) Temp. Heat Index Dew Point Humidity Pressure Visibility Wind Dir Wind Speed Gust Speed Precip Events Conditions
12:53 AM 66.9 °F - 48.0 °F 51% 29.90 in 10.0 mi Calm Calm - N/A   Clear
1:53 AM 66.0 °F - 54.0 °F 65% 29.88 in 10.0 mi Calm Calm - N/A   Clear
2:53 AM 66.0 °F - 55.0 °F 68% 29.88 in 10.0 mi NNW 4.6 mph - N/A   Clear
3:53 AM 66.0 °F - 55.0 °F 68% 29.87 in 10.0 mi Calm Calm - N/A   Clear
4:53 AM 64.4 °F - 53.6 °F 68% 29.96 in 10.0 mi West 5.8 mph - N/A   Clear
5:53 AM 63.0 °F - 53.1 °F 70% 29.87 in 10.0 mi WNW 6.9 mph - N/A   Clear
6:53 AM 63.0 °F - 53.1 °F 70% 29.88 in 10.0 mi Calm Calm - N/A   Clear
7:53 AM 64.0 °F - 55.0 °F 73% 29.90 in 10.0 mi NW 5.8 mph - N/A   Clear
8:53 AM 68.0 °F - 55.9 °F 65% 29.92 in 10.0 mi Calm Calm - N/A   Clear
9:53 AM 71.1 °F - 57.0 °F 61% 29.94 in 10.0 mi WNW 3.5 mph - N/A   Partly Cloudy
10:53 AM 73.9 °F - 59.0 °F 59% 29.94 in 10.0 mi WSW 9.2 mph - N/A   Mostly Cloudy
11:53 AM 81.0 °F 81.3 °F 59.0 °F 47% 29.92 in 10.0 mi West 3.5 mph - N/A   Mostly Cloudy
12:53 PM 86.0 °F 86.1 °F 61.0 °F 43% 29.89 in 10.0 mi ESE 4.6 mph - N/A   Clear
1:53 PM 90.0 °F - 52.0 °F 27% 29.87 in 10.0 mi South 4.6 mph - N/A   Clear
2:53 PM 90.0 °F - 52.0 °F 27% 29.86 in 10.0 mi Calm Calm - N/A   Clear
3:53 PM 91.9 °F 89.5 °F 54.0 °F 27% 29.83 in 10.0 mi Calm Calm - N/A   Clear
4:53 PM 93.9 °F - 51.1 °F 23% 29.81 in 10.0 mi South 5.8 mph - N/A   Clear
5:53 PM 93.9 °F - 52.0 °F 24% 29.80 in 10.0 mi South 4.6 mph - N/A   Clear
6:53 PM 91.0 °F 88.9 °F 55.0 °F 29% 29.80 in 10.0 mi South 4.6 mph - N/A   Clear
7:53 PM 82.0 °F 82.0 °F 57.9 °F 44% 29.81 in 10.0 mi SSW 3.5 mph - N/A   Clear
8:53 PM 75.2 °F - 53.6 °F 47% 29.90 in 10.0 mi Calm Calm - N/A   Clear
9:53 PM 75.9 °F - 52.0 °F 43% 29.85 in 10.0 mi SSW 5.8 mph - N/A   Clear
10:53 PM 66.9 °F - 52.0 °F 59% 29.87 in 10.0 mi SSE 4.6 mph - N/A   Clear
11:53 PM 63.0 °F - 52.0 °F 67% 29.88 in 10.0 mi Calm Calm - N/A   Clear